TimeEDT,TemperatureF,Dew PointF,Humidity,Sea Level PressureIn,VisibilityMPH,Wind Direction,Wind SpeedMPH,Gust SpeedMPH,PrecipitationIn,Events,Conditions,WindDirDegrees,DateUTC
12:53 AM,73.0,68.0,84,30.02,10.0,Calm,Calm,-,N/A,,Clear,0,2013-07-09 04:53:00
1:53 AM,71.1,69.1,93,30.02,10.0,Calm,Calm,-,N/A,,Clear,0,2013-07-09 05:53:00
2:53 AM,71.1,68.0,90,30.02,10.0,Calm,Calm,-,N/A,,Clear,0,2013-07-09 06:53:00
3:53 AM,70.0,68.0,93,30.02,10.0,Calm,Calm,-,N/A,,Clear,0,2013-07-09 07:53:00
4:53 AM,69.1,66.9,93,30.03,10.0,North,3.5,-,N/A,,Clear,350,2013-07-09 08:53:00
5:53 AM,70.0,68.0,93,30.05,10.0,NE,3.5,-,N/A,,Scattered Clouds,40,2013-07-09 09:53:00
6:19 AM,71.6,68.0,88,30.06,10.0,North,3.5,-,N/A,,Mostly Cloudy,360,2013-07-09 10:19:00
6:53 AM,72.0,69.1,91,30.06,10.0,Calm,Calm,-,N/A,,Mostly Cloudy,0,2013-07-09 10:53:00
7:03 AM,71.6,69.8,94,30.06,10.0,ENE,3.5,-,N/A,,Overcast,70,2013-07-09 11:03:00
7:49 AM,73.4,69.8,88,30.07,10.0,North,3.5,-,N/A,,Overcast,360,2013-07-09 11:49:00
7:53 AM,73.0,69.1,87,30.07,10.0,North,3.5,-,N/A,,Overcast,10,2013-07-09 11:53:00
8:53 AM,73.9,70.0,87,30.08,9.0,NNW,3.5,-,N/A,,Overcast,340,2013-07-09 12:53:00
9:53 AM,75.9,70.0,82,30.07,10.0,NNE,4.6,-,N/A,,Overcast,20,2013-07-09 13:53:00
10:00 AM,75.2,71.6,89,30.07,9.0,NE,4.6,-,N/A,,Overcast,40,2013-07-09 14:00:00
10:53 AM,77.0,71.1,82,30.07,10.0,NNE,5.8,-,N/A,,Overcast,20,2013-07-09 14:53:00
11:53 AM,80.1,71.1,74,30.07,10.0,Variable,4.6,-,N/A,,Scattered Clouds,0,2013-07-09 15:53:00
12:53 PM,82.0,71.1,69,30.06,10.0,North,5.8,-,N/A,,Clear,360,2013-07-09 16:53:00
1:16 PM,80.6,69.8,70,30.06,10.0,NNE,5.8,-,N/A,,Mostly Cloudy,30,2013-07-09 17:16:00
1:40 PM,80.6,71.6,74,30.05,10.0,North,8.1,-,N/A,,Scattered Clouds,10,2013-07-09 17:40:00
1:53 PM,81.0,71.1,72,30.05,10.0,Variable,5.8,-,N/A,,Partly Cloudy,0,2013-07-09 17:53:00
2:53 PM,80.1,69.1,69,30.04,10.0,SSE,5.8,-,N/A,,Clear,150,2013-07-09 18:53:00
3:53 PM,82.0,70.0,67,30.04,10.0,South,6.9,-,N/A,,Clear,180,2013-07-09 19:53:00
4:53 PM,82.9,68.0,60,30.02,10.0,South,6.9,-,N/A,,Partly Cloudy,180,2013-07-09 20:53:00
5:53 PM,81.0,70.0,69,30.01,10.0,SSE,4.6,-,N/A,,Clear,150,2013-07-09 21:53:00
6:53 PM,80.1,71.1,74,30.01,10.0,SSE,3.5,-,N/A,,Clear,160,2013-07-09 22:53:00
7:53 PM,80.1,72.0,76,30.01,10.0,South,4.6,-,N/A,,Clear,170,2013-07-09 23:53:00
8:53 PM,78.1,73.0,84,30.01,8.0,SSE,4.6,-,N/A,,Clear,150,2013-07-10 00:53:00
9:53 PM,75.9,72.0,87,30.03,10.0,SSE,3.5,-,N/A,,Partly Cloudy,150,2013-07-10 01:53:00
10:53 PM,75.0,72.0,90,30.04,9.0,SE,3.5,-,N/A,,Mostly Cloudy,140,2013-07-10 02:53:00
11:53 PM,75.0,72.0,90,30.03,8.0,SSE,4.6,-,N/A,,Overcast,150,2013-07-10 03:53:00